SCP
0 -0 -0 -0 -0 -0 -0 -0 -0 -0 -0 -0 0 0 -0 0 0 0 0 0 0 0 0 0 0 0 0 0 0 0 0 0 0 0 0 0 0 0 0 0 0 0 0 0 0
0 0 0 -0 -0 -0 0 0 0 -0 -0 0 -0 0 0 0 0 0 0 0 0 0 0 0 0 0 0 0 0 0 0 0 0 0 0 0 0 0 0 0 0 0 0 0 0
0 0 0 0 0 0 0 0 0 0 0 0 0 -0 -0 -0 0 0 0 0 0 0 0 0 0 0 0 0 0 0 0 0 0 0 0 0 0 0 0 0 0 0 0 0 0
0 0 0 0 0 0 0 0 0 0 0 0 0 0 0 0 0 0 0 0 0 0 0 0 0 0 0 0 0 0 0 0 0 0 0 0 0 0 0 0 0 0 0 0 0
0 0 0 0 0 0 0 0 0 0 0 0 0 0 0 0 0 0 0 0 0 0 0 0 0 0 0 0 0 0 0 0 0 0 0 0 0 0 0 0 0 0 0 0 0
0 0 0 0 0 0 0 0 0 0 0 0 0 0 0 0 0 0 0 0 0 0 0 0 0 0 0 0 0 0 0 0 0 0 0 0 0 0 0 0 0 0 0 0 0
0 0 0 0 0 0 0 0 0 0 0 0 0 0 0 0 0 0 0 0 0 0 0 0 0 0 0 0 0 0 0 0 0 0 0 0 0 0 0 0 0 0 0 0 0
0 0 0 0 0 0 0 0 0 0 0 0 0 0 0 0 0 0 0 0 0 0 0 0 0 0 0 0 0 0 0 0 0 0 0 0 0 0 0 0 0 0 0 0 0
0 0 0 0 0 0 0 0 0 0 0 0 0 0 0 0 0 0 0 0 0 0 0 0 0 0 0 0 0 0 0 0 0 0 0 0 0 0 0 0 0 0 0 0 0
0 0 0 0 0 0 0 0 0 0 0 0 0 0 0 0 0 0 0 0 0 0 0 0 0 0 0 0 0 0 0 0 0 0 0 0 0 0 0 0 0 0 0 0 0
0 0 0 0 0 0 0 0 0 0 0 0 0 0 0 0 0 0 0 0 0 0 0 0 0 0 0 0 0 0 0 0 0 0 0 0 0 0 0 0 0 0 0 0 0
0 0 0 0 0 0 0 0 0 0 0 0 0 0 0 0 0 0 0 0 0 0 0 0 0 0 0 0 0 0 0 0 0 0 0 0 0 0 0 0 0 0 0 0 0
0 0 0 0 0 0 0 0 0 0 0 0 0 0 0 0 0 0 0 0 0 0 0 0 0 0 0 0 0 0 0 0 0 0 0 0 0 0 0 0 0 0 0 0 0
0 0 0 0 0 0 0 0 0 0 0 0 0 0 0 0 0 0 0 0 0 0 0 0 0 0 0 0 0 0 0 0 0 0 0 0 -0 0 0 0 0 0 0 0 0
0 0 0 0 0 0 0 0 0 0 0 0 0 0 0 0 0 0 0 0 0 0 0 0 0 0 0 0 0 0 0 0 0 0 0 0 0 0 0 0 0 0 0 0 0
0 0 0 0 0 0 0 0 0 0 0 0 0 0 0 0 0 0 0 0 0 0 0 0 0 0 0 0 0 0 0 0 0 0 0 0 0 0 0 0 0 0 0 0 0
0 0 0 0 0 0 0 0 0 0 0 0 0 0 0 0 0 0 0 0 0 0 0 0 0 0 0 0 0 0 0 0 0 0 0 0 0 0 0 0 0 0 0 0 0
0 0 0 0 0 0 0 0 0 0 0 0 0 0 0 0 0 0 0 0 0 0 0 0 0 0 0 0 0 0 0 0 0 0 0 0 0 0 0 0 0 0 0 0 0
0 0 0 0 0 0 0 0 0 0 0 0 0 0 0 0 0 0 0 0 0 0 0 0 0 0 0 0 0 0 0 0 0 0 0 0 0 0 0 0 0 0 0 0 0
0 0 0 0 0 0 0 0 0 0 0 0 0 0 0 0 0 0 0 0 0 0 0 0 0 0 0 0 0 0 0 0 0 0 0 0 0 0 0 0 0 0 0 0 0
0 0 0 0 0 0 0 0 0 0 0 0 0 0 0 0 0 0 0 0 0 0 0 0 0 0 0 0 0 0 0 0 0 0 0 0 0 0 0 0 0 0 0 0 0
0 0 0 0 0 0 0 0 0 0 0 0 0 0 0 0 0 0 0 0 0 0 0 0 0 0 0 0 0 0 0 0 0 0 0 0 0 0 0 0 0 0 0 0 0
0 0 0 0 0 0 0 0 0 0 0 0 0 0 0 0 0 0 0 0 0 0 0 0 0 0 0 0 0 0 0 0 0 0 0 0 0 0 0 0 0 0 0 0 0
0 0 0 0 0 0 0 0 0 0 0 0 0 0 0 0 0 0 0 0 0 0 0 0 0 0 0 0 0 0 0 0 0 0 0 0 0 0 0 0 0 0 0 0 0
0 0 0 0 0 0 0 0 0 0 0 0 0 0 0 0 0 0 0 0 0 0 0 0 0 0 0 0 0 0 0 0 0 0 0 0 0 0 0 0 0 0 0 0 0
0 0 0 0 0 0 0 0 0 0 0 0 0 0 0 0 0 0 0 0 0 0 0 0 0 0 0 0 0 0 0 0 0 0 0 0 0 0 0 0 0 0 0 0 0
0 0 0 0 0 0 0 0 0 0 0 0 0 0 0 0 0 0 0 0 0 0 0 0 0 0 0 0 0 0 0 0 0 0 0 0 0 0 0 0 0 0 0 0 0
Wind_Speed_500mb
15 16 18 20 20 22 24 26 27 28 26 24 15 2 6 9 6 5 8 11 14 15 15 10 9 7 9 5 6 6 7 3 7 9 6 15 7 12 11 10 25 28 25 16 32
15 17 19 20 21 22 23 24 25 25 25 21 19 8 5 5 3 5 8 7 10 13 15 14 12 10 8 4 3 7 6 11 9 9 5 9 13 16 11 16 22 39 45 34 32
17 18 19 21 22 24 25 25 25 25 23 22 17 13 8 10 12 12 11 4 6 11 14 13 15 6 7 5 5 3 7 6 6 14 9 7 9 14 14 11 40 49 54 45 46
21 22 22 23 24 24 26 28 26 27 28 26 19 11 9 8 8 13 13 7 2 6 10 9 10 5 6 5 2 2 4 5 7 7 6 8 8 11 37 39 30 27 36 48 55
25 27 28 27 26 26 25 28 29 29 28 28 25 18 12 12 15 15 17 13 9 8 8 9 10 5 3 5 3 4 4 8 11 16 16 18 24 17 43 43 49 43 35 46 58
31 31 33 33 32 31 28 27 31 31 30 29 26 21 14 12 13 16 20 20 17 12 10 7 4 4 9 2 4 4 9 20 14 20 18 9 10 4 16 11 26 40 46 51 61
36 37 38 37 37 35 34 29 31 34 32 32 26 20 24 26 18 19 24 22 19 15 12 6 2 2 5 5 1 1 7 10 7 4 7 8 15 20 45 35 30 34 42 51 62
39 40 41 43 42 41 38 35 33 34 35 34 24 17 16 19 19 25 25 22 20 16 11 7 3 3 4 5 6 3 7 6 5 5 4 8 21 13 17 27 36 39 46 56 64
42 43 44 44 46 47 44 41 38 37 37 28 20 15 14 17 22 28 28 24 20 15 10 8 4 3 5 8 8 11 7 7 13 14 3 11 21 13 22 31 48 50 56 64 68
47 47 45 44 45 49 49 45 40 36 31 21 21 9 21 13 17 22 29 26 19 13 6 6 3 6 6 6 10 12 8 10 13 8 9 10 33 38 48 56 71 64 66 70 76
51 50 49 45 44 44 47 40 16 11 13 15 6 15 14 18 18 22 25 25 21 10 10 3 4 18 24 16 6 7 9 14 10 9 9 20 31 40 60 47 52 65 65 70 82
53 52 51 46 43 38 38 26 23 15 21 27 42 51 57 53 21 30 28 19 16 15 13 7 22 18 11 9 10 8 8 15 13 3 12 18 35 37 39 48 62 60 60 70 68
55 54 51 45 40 36 30 27 21 15 9 20 36 38 38 38 22 23 31 19 11 13 15 15 6 13 13 8 12 10 13 10 16 11 7 15 20 15 12 22 51 56 62 56 62
47 51 52 41 29 27 18 11 9 6 5 14 11 12 15 14 11 22 35 16 6 20 20 14 6 13 8 12 15 9 12 5 5 6 8 7 26 6 13 22 15 40 44 51 54
35 40 42 36 16 16 11 7 6 2 10 11 7 8 15 15 2 7 30 13 12 13 14 16 16 10 11 15 18 13 7 9 3 6 6 7 9 8 7 16 32 17 41 46 46
27 29 38 30 24 25 16 14 14 8 16 9 9 7 6 7 5 6 8 6 2 9 5 11 1 13 13 6 4 12 9 8 7 4 4 16 19 11 12 19 17 14 34 28 28
31 28 32 35 18 22 24 22 5 12 6 10 10 8 5 11 8 12 11 11 14 8 13 1 9 6 8 10 6 5 10 9 9 4 16 10 5 29 14 21 24 21 32 26 27
40 40 34 34 22 22 38 5 18 17 18 5 8 5 14 16 12 14 10 10 16 2 6 11 23 19 11 16 15 14 17 13 17 8 31 4 17 18 31 38 30 42 45 37 34
51 51 51 37 25 32 31 11 23 20 19 21 7 9 11 10 12 12 19 14 20 33 21 15 18 4 5 5 7 11 11 5 9 5 6 12 25 13 15 19 15 37 36 43 37
68 64 71 42 34 42 5 37 17 20 16 10 32 25 25 18 18 19 20 12 13 32 11 12 10 7 6 6 3 10 11 7 3 6 11 24 43 35 21 29 23 23 45 52 35
77 33 26 52 55 33 16 21 11 27 29 19 28 16 19 20 20 16 19 10 17 12 20 11 12 6 8 20 26 8 8 6 4 8 12 13 33 10 15 20 23 28 49 42 28
55 10 37 81 32 22 25 15 11 8 33 19 10 21 24 19 17 16 22 21 42 23 23 16 10 18 27 2 1 7 23 26 13 16 10 5 49 3 4 17 18 21 30 36 33
30 34 46 85 15 21 7 8 8 6 13 17 19 13 11 18 11 19 18 11 38 21 22 18 9 5 15 3 7 13 15 17 4 2 46 13 46 10 20 19 32 25 36 40 42
25 10 15 54 38 33 32 19 16 18 21 14 8 15 7 10 14 20 13 14 39 20 10 37 13 22 41 34 11 11 16 35 42 34 32 53 70 74 68 40 24 31 52 61 62
24 7 28 16 38 31 34 18 41 22 18 29 13 42 28 28 32 43 21 3 8 13 6 16 26 32 47 52 11 10 14 42 45 60 39 61 41 76 69 40 50 63 76 70 57
31 15 21 12 49 45 40 34 48 40 23 24 41 39 39 49 50 47 39 8 11 5 9 2 26 20 54 52 18 23 37 58 48 66 30 41 64 89 59 65 60 82 78 77 75
61 60 20 19 24 29 43 59 52 49 32 63 46 35 37 56 79 89 67 34 27 19 24 15 14 19 49 45 7 4 72 60 66 68 42 53 79 62 56 51 56 81 84 84 82
Wind_Direction_500mb
350 357 1 4 6 9 13 14 19 22 23 15 14 358 50 64 83 142 103 85 60 47 39 32 14 129 142 100 97 122 71 216 235 166 246 170 165 191 218 206 197 208 224 224 190
331 335 342 348 351 353 355 2 3 8 12 15 4 340 262 268 285 199 163 98 55 29 27 28 41 137 124 99 50 90 112 216 197 203 259 199 200 197 190 216 232 235 236 231 206
312 317 323 328 334 339 340 343 347 349 355 359 359 342 291 280 275 223 192 144 60 25 18 19 25 123 109 117 26 138 172 215 236 239 250 202 231 204 196 235 233 237 245 226 210
308 311 316 320 323 328 330 330 333 335 338 343 341 332 287 264 220 203 210 211 322 3 8 10 12 85 92 105 79 147 207 220 282 246 223 221 214 220 218 243 263 262 258 231 214
297 304 309 314 317 319 321 320 322 325 327 330 330 327 289 260 254 231 223 237 265 309 329 359 30 81 114 142 115 165 231 243 269 260 257 263 248 246 258 264 260 257 248 231 218
290 295 300 304 308 312 315 315 311 314 318 320 320 314 277 245 248 237 237 246 256 273 293 331 18 35 122 113 144 186 276 276 286 266 254 241 279 278 255 269 260 252 247 229 219
288 293 296 299 303 305 307 309 306 306 309 312 309 300 275 270 252 238 237 242 247 255 280 286 315 342 155 138 223 241 318 314 246 242 248 211 280 232 261 273 265 252 241 228 219
282 286 290 295 299 301 302 303 300 300 301 304 298 286 264 257 247 243 237 237 241 250 266 258 249 141 133 132 39 86 63 25 231 180 245 153 272 266 261 263 262 250 235 225 221
280 283 288 293 299 300 302 303 300 298 295 290 281 255 256 252 243 236 232 237 236 243 249 238 247 133 119 89 8 359 254 241 301 210 228 177 273 234 267 266 263 251 239 228 223
280 282 285 290 296 301 304 307 306 298 281 277 249 251 241 231 228 233 231 232 236 231 214 209 148 78 45 100 239 229 239 247 241 218 211 227 258 277 270 273 266 259 249 235 230
274 277 281 287 292 298 303 318 306 290 254 230 216 253 263 242 261 246 230 222 223 203 177 138 117 214 211 201 174 169 199 234 250 239 226 248 254 262 276 258 260 257 247 246 243
267 271 275 281 286 293 300 305 291 276 301 261 254 255 258 264 257 247 221 192 179 195 130 59 229 204 134 152 154 167 207 259 283 238 194 272 263 265 259 263 263 259 251 256 252
271 270 270 275 281 285 288 288 282 280 253 278 249 250 252 246 236 230 200 201 167 175 189 171 232 115 133 147 164 204 192 228 238 335 253 302 267 236 284 252 267 255 258 259 252
274 272 271 272 279 270 271 271 251 305 44 264 231 226 214 196 258 213 192 190 199 209 160 228 217 152 162 209 151 226 209 209 285 13 259 21 294 235 243 280 258 258 245 249 248
289 292 286 265 224 232 232 199 168 358 294 274 206 197 175 177 130 219 191 201 195 186 138 238 164 165 187 216 162 224 125 143 136 216 7 237 264 217 7 273 266 258 252 247 253
285 290 298 287 233 223 199 168 138 51 246 284 175 186 142 200 201 146 178 199 120 141 252 255 303 171 198 79 147 135 96 69 64 103 263 225 201 169 184 212 257 258 256 243 247
276 280 280 283 229 214 186 159 62 196 298 233 215 173 178 191 208 180 172 187 179 135 226 243 212 175 170 101 28 103 71 325 315 343 247 136 229 258 234 229 220 227 236 247 267
260 264 268 273 233 186 169 68 224 182 192 112 137 122 194 161 222 184 171 225 236 126 123 184 266 179 185 197 179 173 168 170 241 238 288 72 244 273 220 238 221 242 258 254 242
243 250 252 245 237 186 178 204 218 176 186 167 106 172 233 235 195 156 209 207 207 177 195 182 267 117 203 150 148 182 191 172 96 138 314 242 263 283 227 250 236 239 236 243 243
229 232 239 238 223 183 197 238 214 187 143 143 200 183 204 194 174 185 180 195 217 194 187 221 274 188 137 124 62 174 161 85 2 248 251 268 273 271 219 233 228 241 228 243 237
225 213 226 199 177 177 215 229 245 212 182 169 216 226 220 187 197 204 219 225 199 186 189 158 180 217 130 205 174 143 199 198 170 164 198 268 269 205 207 201 208 231 233 222 234
210 247 183 172 169 201 226 197 222 242 212 234 190 219 207 186 206 225 218 223 185 151 164 210 171 225 220 314 122 198 197 180 201 227 242 203 268 51 314 190 204 223 224 210 253
208 216 183 176 202 207 248 282 249 187 196 203 228 199 178 196 226 192 221 188 175 163 167 175 221 265 261 342 356 215 196 214 247 231 233 193 257 174 236 227 215 229 240 249 251
208 157 188 210 229 211 209 227 235 217 233 233 243 177 164 229 245 253 221 200 201 200 291 171 170 209 237 248 131 193 200 214 216 235 234 231 255 274 260 267 257 263 274 265 266
232 200 184 183 229 227 212 201 227 222 209 203 245 232 215 234 240 242 257 269 78 10 333 166 242 240 251 259 221 205 230 226 222 229 223 252 246 257 269 268 270 272 271 272 267
245 168 187 236 215 225 218 217 231 233 183 218 219 237 232 240 241 263 240 199 217 237 199 191 248 267 253 258 249 244 254 256 253 252 238 256 262 256 279 284 285 277 276 276 273
247 247 210 204 204 203 219 229 231 237 242 237 230 223 232 233 230 240 255 220 211 216 236 200 233 242 254 259 221 259 244 260 263 268 263 256 253 272 265 266 260 266 271 270 270
Wind_Speed_850mb
15 16 18 20 20 22 24 26 27 28 26 24 15 2 6 9 6 5 8 11 14 15 15 10 9 7 9 5 6 6 7 3 7 9 6 15 7 12 11 10 25 28 25 16 32
15 17 19 20 21 22 23 24 25 25 25 21 19 8 5 5 3 5 8 7 10 13 15 14 12 10 8 4 3 7 6 11 9 9 5 9 13 16 11 16 22 39 45 34 32
17 18 19 21 22 24 25 25 25 25 23 22 17 13 8 10 12 12 11 4 6 11 14 13 15 6 7 5 5 3 7 6 6 14 9 7 9 14 14 11 40 49 54 45 46
21 22 22 23 24 24 26 28 26 27 28 26 19 11 9 8 8 13 13 7 2 6 10 9 10 5 6 5 2 2 4 5 7 7 6 8 8 11 37 39 30 27 36 48 55
25 27 28 27 26 26 25 28 29 29 28 28 25 18 12 12 15 15 17 13 9 8 8 9 10 5 3 5 3 4 4 8 11 16 16 18 24 17 43 43 49 43 35 46 58
31 31 33 33 32 31 28 27 31 31 30 29 26 21 14 12 13 16 20 20 17 12 10 7 4 4 9 2 4 4 9 20 14 20 18 9 10 4 16 11 26 40 46 51 61
36 37 38 37 37 35 34 29 31 34 32 32 26 20 24 26 18 19 24 22 19 15 12 6 2 2 5 5 1 1 7 10 7 4 7 8 15 20 45 35 30 34 42 51 62
39 40 41 43 42 41 38 35 33 34 35 34 24 17 16 19 19 25 25 22 20 16 11 7 3 3 4 5 6 3 7 6 5 5 4 8 21 13 17 27 36 39 46 56 64
42 43 44 44 46 47 44 41 38 37 37 28 20 15 14 17 22 28 28 24 20 15 10 8 4 3 5 8 8 11 7 7 13 14 3 11 21 13 22 31 48 50 56 64 68
47 47 45 44 45 49 49 45 40 36 31 21 21 9 21 13 17 22 29 26 19 13 6 6 3 6 6 6 10 12 8 10 13 8 9 10 33 38 48 56 71 64 66 70 76
51 50 49 45 44 44 47 40 16 11 13 15 6 15 14 18 18 22 25 25 21 10 10 3 4 18 24 16 6 7 9 14 10 9 9 20 31 40 60 47 52 65 65 70 82
53 52 51 46 43 38 38 26 23 15 21 27 42 51 57 53 21 30 28 19 16 15 13 7 22 18 11 9 10 8 8 15 13 3 12 18 35 37 39 48 62 60 60 70 68
55 54 51 45 40 36 30 27 21 15 9 20 36 38 38 38 22 23 31 19 11 13 15 15 6 13 13 8 12 10 13 10 16 11 7 15 20 15 12 22 51 56 62 56 62
47 51 52 41 29 27 18 11 9 6 5 14 11 12 15 14 11 22 35 16 6 20 20 14 6 13 8 12 15 9 12 5 5 6 8 7 26 6 13 22 15 40 44 51 54
35 40 42 36 16 16 11 7 6 2 10 11 7 8 15 15 2 7 30 13 12 13 14 16 16 10 11 15 18 13 7 9 3 6 6 7 9 8 7 16 32 17 41 46 46
27 29 38 30 24 25 16 14 14 8 16 9 9 7 6 7 5 6 8 6 2 9 5 11 1 13 13 6 4 12 9 8 7 4 4 16 19 11 12 19 17 14 34 28 28
31 28 32 35 18 22 24 22 5 12 6 10 10 8 5 11 8 12 11 11 14 8 13 1 9 6 8 10 6 5 10 9 9 4 16 10 5 29 14 21 24 21 32 26 27
40 40 34 34 22 22 38 5 18 17 18 5 8 5 14 16 12 14 10 10 16 2 6 11 23 19 11 16 15 14 17 13 17 8 31 4 17 18 31 38 30 42 45 37 34
51 51 51 37 25 32 31 11 23 20 19 21 7 9 11 10 12 12 19 14 20 33 21 15 18 4 5 5 7 11 11 5 9 5 6 12 25 13 15 19 15 37 36 43 37
68 64 71 42 34 42 5 37 17 20 16 10 32 25 25 18 18 19 20 12 13 32 11 12 10 7 6 6 3 10 11 7 3 6 11 24 43 35 21 29 23 23 45 52 35
77 33 26 52 55 33 16 21 11 27 29 19 28 16 19 20 20 16 19 10 17 12 20 11 12 6 8 20 26 8 8 6 4 8 12 13 33 10 15 20 23 28 49 42 28
55 10 37 81 32 22 25 15 11 8 33 19 10 21 24 19 17 16 22 21 42 23 23 16 10 18 27 2 1 7 23 26 13 16 10 5 49 3 4 17 18 21 30 36 33
30 34 46 85 15 21 7 8 8 6 13 17 19 13 11 18 11 19 18 11 38 21 22 18 9 5 15 3 7 13 15 17 4 2 46 13 46 10 20 19 32 25 36 40 42
25 10 15 54 38 33 32 19 16 18 21 14 8 15 7 10 14 20 13 14 39 20 10 37 13 22 41 34 11 11 16 35 42 34 32 53 70 74 68 40 24 31 52 61 62
24 7 28 16 38 31 34 18 41 22 18 29 13 42 28 28 32 43 21 3 8 13 6 16 26 32 47 52 11 10 14 42 45 60 39 61 41 76 69 40 50 63 76 70 57
31 15 21 12 49 45 40 34 48 40 23 24 41 39 39 49 50 47 39 8 11 5 9 2 26 20 54 52 18 23 37 58 48 66 30 41 64 89 59 65 60 82 78 77 75
61 60 20 19 24 29 43 59 52 49 32 63 46 35 37 56 79 89 67 34 27 19 24 15 14 19 49 45 7 4 72 60 66 68 42 53 79 62 56 51 56 81 84 84 82
Wind_Direction_850mb
350 357 1 4 6 9 13 14 19 22 23 15 14 358 50 64 83 142 103 85 60 47 39 32 14 129 142 100 97 122 71 216 235 166 246 170 165 191 218 206 197 208 224 224 190
331 335 342 348 351 353 355 2 3 8 12 15 4 340 262 268 285 199 163 98 55 29 27 28 41 137 124 99 50 90 112 216 197 203 259 199 200 197 190 216 232 235 236 231 206
312 317 323 328 334 339 340 343 347 349 355 359 359 342 291 280 275 223 192 144 60 25 18 19 25 123 109 117 26 138 172 215 236 239 250 202 231 204 196 235 233 237 245 226 210
308 311 316 320 323 328 330 330 333 335 338 343 341 332 287 264 220 203 210 211 322 3 8 10 12 85 92 105 79 147 207 220 282 246 223 221 214 220 218 243 263 262 258 231 214
297 304 309 314 317 319 321 320 322 325 327 330 330 327 289 260 254 231 223 237 265 309 329 359 30 81 114 142 115 165 231 243 269 260 257 263 248 246 258 264 260 257 248 231 218
290 295 300 304 308 312 315 315 311 314 318 320 320 314 277 245 248 237 237 246 256 273 293 331 18 35 122 113 144 186 276 276 286 266 254 241 279 278 255 269 260 252 247 229 219
288 293 296 299 303 305 307 309 306 306 309 312 309 300 275 270 252 238 237 242 247 255 280 286 315 342 155 138 223 241 318 314 246 242 248 211 280 232 261 273 265 252 241 228 219
282 286 290 295 299 301 302 303 300 300 301 304 298 286 264 257 247 243 237 237 241 250 266 258 249 141 133 132 39 86 63 25 231 180 245 153 272 266 261 263 262 250 235 225 221
280 283 288 293 299 300 302 303 300 298 295 290 281 255 256 252 243 236 232 237 236 243 249 238 247 133 119 89 8 359 254 241 301 210 228 177 273 234 267 266 263 251 239 228 223
280 282 285 290 296 301 304 307 306 298 281 277 249 251 241 231 228 233 231 232 236 231 214 209 148 78 45 100 239 229 239 247 241 218 211 227 258 277 270 273 266 259 249 235 230
274 277 281 287 292 298 303 318 306 290 254 230 216 253 263 242 261 246 230 222 223 203 177 138 117 214 211 201 174 169 199 234 250 239 226 248 254 262 276 258 260 257 247 246 243
267 271 275 281 286 293 300 305 291 276 301 261 254 255 258 264 257 247 221 192 179 195 130 59 229 204 134 152 154 167 207 259 283 238 194 272 263 265 259 263 263 259 251 256 252
271 270 270 275 281 285 288 288 282 280 253 278 249 250 252 246 236 230 200 201 167 175 189 171 232 115 133 147 164 204 192 228 238 335 253 302 267 236 284 252 267 255 258 259 252
274 272 271 272 279 270 271 271 251 305 44 264 231 226 214 196 258 213 192 190 199 209 160 228 217 152 162 209 151 226 209 209 285 13 259 21 294 235 243 280 258 258 245 249 248
289 292 286 265 224 232 232 199 168 358 294 274 206 197 175 177 130 219 191 201 195 186 138 238 164 165 187 216 162 224 125 143 136 216 7 237 264 217 7 273 266 258 252 247 253
285 290 298 287 233 223 199 168 138 51 246 284 175 186 142 200 201 146 178 199 120 141 252 255 303 171 198 79 147 135 96 69 64 103 263 225 201 169 184 212 257 258 256 243 247
276 280 280 283 229 214 186 159 62 196 298 233 215 173 178 191 208 180 172 187 179 135 226 243 212 175 170 101 28 103 71 325 315 343 247 136 229 258 234 229 220 227 236 247 267
260 264 268 273 233 186 169 68 224 182 192 112 137 122 194 161 222 184 171 225 236 126 123 184 266 179 185 197 179 173 168 170 241 238 288 72 244 273 220 238 221 242 258 254 242
243 250 252 245 237 186 178 204 218 176 186 167 106 172 233 235 195 156 209 207 207 177 195 182 267 117 203 150 148 182 191 172 96 138 314 242 263 283 227 250 236 239 236 243 243
229 232 239 238 223 183 197 238 214 187 143 143 200 183 204 194 174 185 180 195 217 194 187 221 274 188 137 124 62 174 161 85 2 248 251 268 273 271 219 233 228 241 228 243 237
225 213 226 199 177 177 215 229 245 212 182 169 216 226 220 187 197 204 219 225 199 186 189 158 180 217 130 205 174 143 199 198 170 164 198 268 269 205 207 201 208 231 233 222 234
210 247 183 172 169 201 226 197 222 242 212 234 190 219 207 186 206 225 218 223 185 151 164 210 171 225 220 314 122 198 197 180 201 227 242 203 268 51 314 190 204 223 224 210 253
208 216 183 176 202 207 248 282 249 187 196 203 228 199 178 196 226 192 221 188 175 163 167 175 221 265 261 342 356 215 196 214 247 231 233 193 257 174 236 227 215 229 240 249 251
208 157 188 210 229 211 209 227 235 217 233 233 243 177 164 229 245 253 221 200 201 200 291 171 170 209 237 248 131 193 200 214 216 235 234 231 255 274 260 267 257 263 274 265 266
232 200 184 183 229 227 212 201 227 222 209 203 245 232 215 234 240 242 257 269 78 10 333 166 242 240 251 259 221 205 230 226 222 229 223 252 246 257 269 268 270 272 271 272 267
245 168 187 236 215 225 218 217 231 233 183 218 219 237 232 240 241 263 240 199 217 237 199 191 248 267 253 258 249 244 254 256 253 252 238 256 262 256 279 284 285 277 276 276 273
247 247 210 204 204 203 219 229 231 237 242 237 230 223 232 233 230 240 255 220 211 216 236 200 233 242 254 259 221 259 244 260 263 268 263 256 253 272 265 266 260 266 271 270 270